Dewpoint
53 45 40 31 21 17 16 14 17 16 48 55 57 57 56 57 52 47 64 66 67 68 69 69 70 70 69 69 68 68 68 67 66 65 65 65 65 65 65 65 65 65 64 62 62 64 65 66 67
42 38 35 24 13 9 6 13 25 44 48 51 48 56 57 57 61 62 63 67 67 68 68 68 70 69 69 69 68 67 66 66 65 65 65 65 65 65 66 65 64 65 64 61 61 61 62 63 65
40 42 33 19 11 7 8 13 46 47 50 47 45 52 57 59 62 63 66 68 68 68 68 68 69 69 69 68 67 67 66 66 65 65 64 64 64 64 65 65 65 65 64 61 61 61 61 63 64
38 35 17 11 9 9 10 16 44 46 48 48 47 51 60 63 63 65 67 68 68 68 67 69 68 69 68 68 67 67 66 65 65 65 65 65 65 64 66 65 65 65 64 61 61 61 62 64 64
29 22 14 10 9 10 36 46 47 47 49 49 50 54 56 63 65 66 66 67 67 67 68 67 67 67 68 68 67 67 66 65 66 66 65 65 65 65 66 65 65 65 64 63 62 63 63 63 64
28 18 12 11 10 13 44 48 47 48 49 50 53 54 57 63 63 63 64 64 65 65 66 66 67 67 67 67 66 66 66 66 66 66 66 66 66 66 66 65 65 64 64 63 64 64 64 62 63
27 22 19 14 16 20 42 48 46 47 47 47 52 52 58 60 61 61 62 62 62 62 65 64 66 66 66 66 65 65 66 66 66 66 66 66 65 65 65 65 64 64 63 63 63 64 64 62 62
28 22 24 15 12 22 43 46 47 45 46 52 54 52 54 59 60 60 60 60 60 60 62 61 62 62 63 63 64 65 65 66 66 65 65 64 64 65 64 64 63 63 63 63 63 63 64 61 61
22 18 15 13 21 32 45 44 46 52 53 55 57 56 59 60 59 59 58 59 59 59 60 60 60 62 63 62 63 63 65 65 64 64 63 62 61 60 58 61 61 61 61 62 61 60 59 59 59
22 19 17 18 24 39 42 43 45 47 51 53 56 60 61 59 58 57 56 56 58 58 59 60 60 60 61 62 59 59 60 60 60 60 58 58 58 58 59 61 62 62 60 60 58 56 54 50 46
20 19 19 22 40 42 40 42 45 46 45 52 53 58 58 58 58 57 56 56 56 57 58 60 60 60 61 60 59 58 57 57 58 57 56 57 58 58 58 57 54 52 52 47 45 44 43 43 42
20 20 22 32 44 42 41 41 43 46 49 54 56 57 56 56 57 57 57 57 57 56 57 58 60 61 61 59 58 57 56 56 57 56 57 58 58 56 55 54 50 49 48 46 45 44 43 42 40
19 19 26 38 43 43 42 43 47 52 54 55 56 56 56 57 56 57 58 57 57 55 56 59 60 62 60 58 57 57 59 59 58 58 59 57 56 54 52 50 48 47 46 45 44 43 41 40 38
22 26 36 41 42 42 43 44 45 53 54 54 55 54 54 55 55 55 56 56 55 54 55 57 60 62 60 57 57 59 59 59 59 59 58 56 55 51 49 48 48 46 45 44 43 43 41 39 37
32 34 37 40 39 37 41 37 43 54 54 53 53 50 52 54 55 55 56 55 54 55 55 58 61 62 59 58 58 59 58 58 58 58 57 55 52 50 47 47 46 45 44 44 43 42 41 38 37
22 28 23 39 40 38 33 33 45 54 53 53 53 53 52 54 55 54 56 56 57 57 59 61 61 60 58 57 58 58 57 57 57 56 55 54 51 49 46 46 45 45 44 43 42 40 39 38 37
20 16 19 33 39 37 33 31 43 51 53 52 53 53 54 54 55 55 54 56 57 59 60 61 60 58 57 57 57 56 55 55 55 54 53 51 49 46 46 45 44 43 42 42 39 39 38 36 37
21 21 25 22 33 37 33 30 41 46 48 52 53 54 55 54 54 55 54 56 58 60 60 60 59 57 56 56 55 54 53 53 52 50 49 50 47 46 45 44 43 42 40 38 37 36 38 38 37
25 25 24 22 23 35 35 33 39 43 47 49 50 52 54 55 55 55 54 57 59 59 59 59 57 56 56 56 54 52 52 52 50 48 47 48 46 44 44 43 42 41 39 39 38 37 36 36 35
27 25 23 23 20 31 31 33 38 43 46 48 47 48 50 52 55 54 55 58 59 59 59 58 58 57 56 55 54 53 53 51 48 46 46 45 45 44 43 42 41 39 38 37 38 37 37 37 36
25 25 25 23 18 23 26 26 39 41 42 43 45 46 47 47 53 54 56 57 58 58 59 59 58 57 56 56 54 50 50 46 44 43 43 43 44 42 39 37 36 35 35 35 37 37 36 35 35
24 27 27 24 17 15 21 15 22 38 41 41 41 42 44 45 50 52 55 57 57 58 58 59 58 57 56 57 54 51 51 47 46 43 43 37 37 36 35 36 37 37 37 37 39 38 38 36 34
25 28 27 26 23 23 24 20 20 36 38 40 42 41 42 45 45 49 51 56 57 56 57 58 58 57 56 57 55 53 51 50 47 43 34 35 35 35 35 36 36 37 38 39 39 38 37 37 36
29 28 24 28 25 21 25 23 22 27 35 39 41 42 41 43 45 46 48 53 55 56 56 58 59 58 57 56 54 52 49 48 44 40 35 37 34 35 34 34 35 37 40 38 38 38 36 36 36
27 22 18 16 22 21 28 26 25 25 27 34 38 39 40 42 45 49 51 53 55 56 57 58 59 57 57 56 54 52 50 47 43 35 34 32 33 35 34 34 34 37 40 39 38 37 36 36 35
27 24 21 12 19 17 29 23 21 29 30 32 31 32 37 43 43 50 53 54 55 56 56 58 58 57 56 55 53 51 48 46 42 35 33 32 33 33 33 35 34 34 38 38 38 38 37 37 36
28 24 26 28 29 26 24 25 23 28 33 36 36 38 37 44 44 49 54 55 56 56 56 58 56 56 54 53 50 47 45 43 38 40 35 34 34 33 34 34 36 35 33 34 36 38 37 37 36
29 31 25 27 21 21 22 21 20 22 29 35 37 40 41 45 48 51 54 56 56 56 57 56 54 52 50 49 45 43 43 43 41 36 36 37 37 33 35 36 34 33 33 34 34 35 37 36 36
27 26 26 27 25 20 19 20 24 22 27 30 33 38 40 47 49 52 54 55 55 54 52 52 48 44 43 43 41 40 41 40 40 38 38 34 34 36 36 34 33 32 32 33 33 35 35 33 31
28 27 28 25 21 26 24 22 25 22 24 27 27 31 38 45 49 51 51 51 51 51 50 49 44 40 39 39 40 41 40 40 37 34 33 34 34 35 33 34 32 32 32 33 32 30 29 30 31
Lifted_Index
6 7 7 6 5 4 3 1 0 -1 -3 -5 -5 -5 -5 -5 -4 -3 -3 -4 -5 -5 -4 -4 -4 -4 -4 -3 -3 -2 -1 -0 0 1 1 1 1 0 -0 -1 -1 -0 0 1 1 1 0 -0 -1
6 6 6 5 4 3 2 0 -1 -2 -3 -4 -4 -5 -5 -5 -5 -4 -4 -4 -5 -5 -4 -4 -4 -4 -3 -3 -2 -2 -1 -1 -0 0 1 1 1 0 -0 -1 -1 -1 0 1 2 2 1 1 0
5 5 4 4 3 2 1 -0 -2 -3 -3 -3 -4 -4 -5 -5 -5 -4 -4 -5 -5 -4 -4 -4 -4 -4 -3 -3 -2 -2 -1 -1 -0 0 1 1 1 -0 -1 -1 -1 -1 -0 1 2 2 2 2 1
4 4 3 3 3 2 0 -1 -2 -2 -2 -3 -3 -4 -4 -4 -5 -5 -4 -4 -4 -4 -4 -4 -4 -3 -3 -2 -2 -2 -1 -1 -1 -0 0 0 0 -1 -1 -2 -2 -1 -0 1 1 2 2 2 2
4 4 3 3 2 1 -1 -2 -3 -3 -2 -2 -3 -4 -4 -4 -4 -5 -4 -4 -4 -4 -4 -3 -3 -2 -2 -2 -2 -2 -1 -1 -1 -1 -1 -0 -1 -1 -2 -2 -2 -1 -0 1 1 2 2 3 3
3 3 3 2 1 -0 -2 -3 -3 -3 -3 -3 -3 -3 -4 -4 -4 -4 -4 -4 -4 -3 -3 -2 -2 -2 -2 -1 -1 -1 -1 -1 -1 -1 -1 -1 -2 -2 -3 -2 -2 -0 0 1 1 1 2 3 4
3 3 2 1 0 -1 -2 -3 -3 -3 -3 -3 -3 -3 -3 -3 -3 -3 -3 -3 -3 -2 -2 -1 -0 0 -0 -0 -0 -0 -1 -1 -1 -1 -1 -2 -2 -2 -2 -1 -1 0 1 1 2 2 3 4 4
2 2 2 1 -0 -1 -2 -3 -3 -3 -3 -3 -3 -2 -2 -2 -2 -2 -2 -2 -2 -1 -1 0 2 2 2 1 1 1 0 -1 -1 -1 -2 -2 -2 -1 -1 -0 0 1 2 2 2 2 3 4 4
2 2 1 1 -0 -2 -3 -3 -3 -3 -3 -2 -2 -2 -2 -2 -1 -1 -0 0 0 1 1 2 3 4 3 3 2 2 1 -0 -1 -1 -1 -1 -0 0 1 1 2 2 2 2 3 3 3 4 4
2 2 1 0 -1 -2 -3 -3 -3 -2 -2 -2 -2 -2 -1 -1 -1 -0 1 1 2 3 3 4 4 5 4 3 3 3 2 1 0 -0 -0 0 1 2 2 2 2 2 2 2 3 3 3 4 4
1 1 1 0 -1 -2 -2 -2 -2 -2 -1 -1 -2 -1 -1 -1 -0 0 1 2 2 3 4 4 5 4 4 3 4 4 3 2 1 0 0 1 1 1 2 2 2 2 2 2 3 3 3 4 4
0 1 0 -0 -1 -2 -2 -2 -2 -1 -1 -1 -1 -1 -1 -0 -0 0 1 2 2 3 3 3 3 3 2 2 3 3 3 2 1 0 0 0 1 1 1 1 1 2 2 2 3 3 3 4 5
-0 0 0 -1 -2 -2 -2 -1 -1 -1 -1 -1 -1 -1 -0 -0 -0 -0 0 1 2 2 2 1 1 0 1 1 2 2 1 1 0 -0 -0 -0 0 0 1 1 1 2 2 2 3 3 4 5 6
-0 -0 -0 -1 -2 -2 -1 -1 -1 -2 -2 -2 -1 -1 -0 -0 -1 -1 -0 1 1 1 1 -0 -1 -2 -1 1 1 1 -0 -1 -1 -1 -1 -0 -0 0 0 1 1 2 2 3 4 5 6 7 8
0 -0 -1 -1 -1 -1 -1 -1 -2 -3 -3 -3 -2 -2 -1 -1 -1 -1 -0 0 1 1 0 -1 -2 -2 -1 0 1 -0 -1 -2 -2 -2 -1 -1 -1 -0 0 1 1 2 3 4 5 7 7 8 9
0 0 -0 -1 -1 -1 -1 -1 -2 -3 -4 -3 -3 -2 -2 -1 -1 -1 -0 0 0 -0 -1 -1 -2 -2 -1 0 0 -1 -2 -2 -2 -2 -1 -1 -0 0 1 2 2 4 5 6 7 8 8 9 10
0 0 0 -0 -1 -1 -1 -1 -2 -3 -4 -3 -3 -2 -2 -1 -1 -1 -0 -0 -1 -1 -2 -2 -2 -2 -1 -0 -0 -1 -1 -1 -1 -0 0 1 1 2 2 3 4 6 7 7 8 8 9 10 11
0 0 0 0 -0 -1 -1 -1 -1 -2 -3 -3 -3 -3 -3 -2 -2 -1 -1 -1 -1 -2 -2 -3 -3 -3 -2 -1 -1 -1 -1 -1 -0 1 2 2 3 3 4 5 6 7 7 7 8 8 10 11 12
0 0 0 0 0 -0 -0 -0 -1 -2 -3 -3 -4 -4 -3 -3 -3 -2 -1 -1 -2 -2 -3 -3 -3 -3 -2 -1 -1 -1 -1 -1 0 2 3 3 4 4 5 6 7 7 7 7 7 8 9 11 11
-0 0 0 0 1 1 0 0 -0 -2 -3 -3 -4 -4 -4 -3 -3 -3 -2 -2 -2 -3 -3 -3 -3 -3 -3 -2 -2 -1 -1 -1 0 1 2 3 5 6 6 7 7 7 7 7 7 7 7 9 10
0 0 0 0 0 1 1 1 0 -1 -2 -3 -3 -4 -4 -3 -3 -3 -3 -2 -2 -3 -3 -3 -3 -3 -3 -3 -2 -1 -1 -1 0 1 2 3 5 6 7 7 7 7 7 7 7 7 6 8 10
0 0 0 0 1 1 1 1 1 -1 -2 -3 -3 -3 -3 -3 -3 -3 -3 -3 -3 -3 -3 -3 -3 -3 -3 -2 -2 -1 -1 -1 -0 0 1 3 4 6 6 7 7 7 7 7 6 6 7 9 10
1 1 1 1 1 1 1 1 1 0 -1 -2 -2 -3 -3 -3 -3 -3 -3 -4 -4 -3 -3 -3 -3 -3 -3 -2 -2 -1 -1 -1 -1 -0 1 2 3 5 6 6 7 7 6 5 4 6 9 11 12
1 1 1 1 1 1 1 1 1 1 0 -1 -2 -2 -2 -2 -2 -2 -3 -3 -3 -3 -2 -2 -2 -3 -2 -2 -2 -2 -1 -1 -1 -0 0 1 2 4 5 6 6 6 5 4 5 9 11 12 12
1 1 1 1 1 1 1 2 1 1 1 0 -0 -1 -1 -1 -1 -2 -2 -2 -3 -2 -2 -2 -2 -2 -2 -2 -2 -2 -2 -1 -1 -1 -0 0 1 2 3 5 5 5 5 6 9 11 12 12 12
1 1 1 1 1 1 1 2 2 1 1 1 1 0 0 -0 -0 -1 -1 -2 -2 -2 -2 -2 -2 -2 -2 -2 -2 -2 -2 -2 -1 -1 -1 -0 0 1 3 5 5 5 6 8 11 12 13 12 12
1 1 1 1 1 1 1 2 1 1 1 1 1 1 1 1 0 -0 -1 -1 -1 -2 -2 -2 -2 -2 -2 -3 -3 -3 -2 -2 -2 -1 -1 -0 0 2 4 6 6 6 8 10 12 13 13 13 12
0 1 1 1 1 1 1 1 1 1 1 1 1 1 1 1 1 0 -1 -1 -2 -2 -2 -2 -3 -3 -3 -3 -3 -3 -3 -2 -2 -1 -1 -0 1 3 5 7 7 8 10 12 13 13 13 13 12
1 1 1 1 1 1 1 1 1 1 1 1 1 1 1 0 0 -0 -1 -2 -2 -2 -3 -3 -3 -3 -3 -3 -3 -3 -2 -2 -1 -1 -0 1 2 5 7 8 9 11 12 12 12 12 13 12 12
1 1 1 1 1 1 1 1 1 1 1 1 1 1 1 0 -0 -1 -1 -2 -2 -3 -3 -4 -4 -4 -3 -3 -3 -2 -2 -1 -1 -0 0 2 4 6 8 9 10 11 12 11 11 12 12 12 11